Regional Weather Roundup
Issued by NWS

Home | Current Version | Previous Version | Text Only | Print | Product List | Glossary Off
Versions: 1 2 3 4 5 6 7 8 9 10 11 12 13 14 15 16 17 18 19 20 21 22 23 24 25 26 27 28 29 30 31 32 33 34 35 36 37 38 39 40 41 42 43 44 45 46 47 48 49 50

423
ASUS43 KBIS 052202
RWRND

NORTH DAKOTA REGIONAL WEATHER ROUNDUP
NATIONAL WEATHER SERVICE BISMARCK ND
400 PM CST FRI FEB 05 2016

NOTE: "FAIR" INDICATES FEW OR NO CLOUDS BELOW 12,000 FEET WITH NO
SIGNIFICANT WEATHER AND/OR OBSTRUCTIONS TO VISIBILITY.


NDZ001>003-009>011-017-052300-
NORTHWEST NORTH DAKOTA

CITY           SKY/WX    TMP DP  RH WIND       PRES   REMARKS
WILLISTON      CLOUDY    40  25  55 SW9       30.07F
MINOT          SUNNY     40  21  46 W15       30.06F
MINOT AFB      SUNNY     38  23  54 W2        30.05F
$$

NDZ018>021-031>035-040>046-052300-
SOUTHWEST NORTH DAKOTA

CITY           SKY/WX    TMP DP  RH WIND       PRES   REMARKS
BISMARCK       SUNNY     43  24  47 W15       30.13F
DICKINSON      SUNNY     40  20  44 W15       30.08F
GARRISON         N/A     39  21  48 W13       30.08F
HETTINGER ARPT SUNNY     43  18  36 W15       30.14S
$$

NDZ004>008-012>016-024-026-027-054-052300-
NORTHEAST NORTH DAKOTA

CITY           SKY/WX    TMP DP  RH WIND       PRES   REMARKS
GRAND FORKS    SUNNY     27  18  69 CALM      30.12F
GRND FRKS AFB  SUNNY     31  19  62 W5        30.12S
DEVILS LAKE    SUNNY     25  20  81 SW9       30.10F WCI  15
$$

NDZ022-023-025-028>030-036>039-047>053-052300-
SOUTHEAST NORTH DAKOTA

CITY           SKY/WX    TMP DP  RH WIND       PRES   REMARKS
FARGO          SUNNY     31  22  69 NW5       30.14S
JAMESTOWN      SUNNY     32  17  54 NW12      30.11F
$$





USA.gov is the U.S. government's official web portal to all federal, state and local government web resources and services.